This demonstration page uses our WeatherBlox Daily Observations layout. Learn more.

Left ArrowRight Arrow

Hourly Observations for September 13, 2015

Temp ( °F °C ) Dew Point ( °F °C ) Humidity (%) Winds ( mph kmh ) Pressure ( in mb ) Visibility ( mi km ) Precip ( " mm )
12:51 am 00:51 Clear 76 24.4 49 9.4 39 39 NNE 8 13 29.8 1009 10 16.0934 0 0
1:51 am 01:51 Clear 75 23.9 50 10 41 41 S 6 9 29.79 1009 10 16.0934 0 0
2:51 am 02:51 Clear 72 22.2 50 10 46 46 NNE 6 9 29.8 1009 10 16.0934 0 0
3:51 am 03:51 Clear 73 22.8 49 9.4 43 43 Calm 29.8 1009 10 16.0934 0 0
4:51 am 04:51 Clear 69 20.6 50 10 51 51 Calm 29.81 1010 10 16.0934 0 0
5:51 am 05:51 Clear 68 20 50 10 53 53 NE 3 6 29.82 1010 10 16.0934 0 0
6:51 am 06:51 Sunny 73 22.8 52 11.1 48 48 Calm 29.83 1010 10 16.0934 0 0
7:51 am 07:51 Sunny 76 24.4 52 11.1 43 43 Calm 29.84 1011 10 16.0934 0 0
8:51 am 08:51 Sunny 84 28.9 49 9.4 30 30 E 9 15 29.83 1010 10 16.0934 0 0
9:51 am 09:51 Sunny 86 30 47 8.3 26 26 SE 9 15 29.83 1010 10 16.0934 0 0
10:51 am 10:51 Sunny 89 31.7 49 9.4 25 25 ESE 8 13 29.81 1010 10 16.0934 0 0
11:51 am 11:51 Sunny 93 33.9 48 8.9 21 21 VRB 5 7 29.78 1008 10 16.0934 0 0
12:51 pm 12:51 Sunny 96 35.6 43 6.1 16 16 SSE 3 6 29.73 1007 10 16.0934 0 0
1:51 pm 13:51 Sunny 98 36.7 41 5 14 14 undefined N/A 29.69 1006 10 16.0934 0 0
2:51 pm 14:51 Sunny 99 37.2 42 5.6 14 14 ESE 6 9 29.66 1005 10 16.0934 0 0
3:51 pm 15:51 Sunny 96 35.6 41 5 15 15 S 6 9 29.65 1004 10 16.0934 0 0
4:51 pm 16:51 Sunny 97 36.1 41 5 14 14 WSW 5 7 29.64 1004 10 16.0934 0 0
5:51 pm 17:51 Sunny 94 34.4 42 5.6 17 17 E 16 26 29.64 1004 10 16.0934 0 0
6:10 pm 18:10 Sunny 91 32.8 43 6.1 19 19 E 18 30 29.53 1000 10 16.0934 0 0
6:51 pm 18:51 Clear 90 32.2 44 6.7 20 20 ENE 9 15 29.65 1004 10 16.0934 0 0
7:34 pm 19:34 Partly Cloudy 84 28.9 52 11.1 33 33 WNW 17 28 29.68 1005 10 16.0934 0 0
7:51 pm 19:51 Mostly Clear 83 28.3 51 10.6 33 33 NW 20 31 29.73 1007 10 16.0934 0 0
8:51 pm 20:51 Clear 83 28.3 50 10 32 32 WNW 16 26 29.74 1007 10 16.0934 0 0
9:51 pm 21:51 Clear 78 25.6 54 12.2 43 43 WNW 18 30 29.75 1007 10 16.0934 0 0
10:51 pm 22:51 Clear 76 24.4 54 12.2 47 47 WNW 17 28 29.74 1007 10 16.0934 0 0
11:51 pm 23:51 Clear 76 24.4 53 11.7 45 45 NNW 10 17 29.74 1007 10 16.0934 0 0

Powered by AerisWeather